| time (UTC) | temp F | wind direction | speed MPH | gust MPH | rain 1hr in | rain 24hr in | rain mn in | humidity % | barometer mb |
| 20260506012103 | 60 | 290 | 0.0 | 0.0 | 0.10 | 0.54 | 0.54 | 95 | 1006.5 |
| 20260506011605 | 60 | 273 | 0.0 | 2.0 | 0.09 | 0.53 | 0.54 | 95 | 1006.5 |
| 20260506011521 | 60 | 290 | 0.0 | 0.0 | 0.09 | 0.53 | 0.53 | 95 | 1006.0 |
| 20260506011106 | 60 | 273 | 0.0 | 2.0 | 0.09 | 0.53 | 0.53 | 95 | 1006.5 |
| 20260506010539 | 60 | 290 | 0.0 | 3.0 | 0.08 | 0.51 | 0.51 | 95 | 1006.7 |
| 20260506010019 | 60 | 290 | 1.0 | 2.0 | 0.06 | 0.49 | 0.50 | 95 | 1006.7 |
| 20260506010005 | 60 | 291 | 0.0 | 3.0 | 0.07 | 0.50 | 0.50 | 95 | 1006.2 |
| 20260506005513 | 60 | 291 | 1.0 | 3.0 | 0.05 | 0.48 | 0.48 | 95 | 1006.7 |
| 20260506005011 | 60 | 291 | 1.0 | 3.0 | 0.04 | 0.47 | 0.47 | 95 | 1006.7 |
| 20260506004737 | 60 | 291 | 1.0 | 5.0 | 0.04 | 0.46 | 0.46 | 95 | 1006.5 |
| 20260506004559 | 60 | 292 | 1.0 | 5.0 | 0.04 | 0.46 | 0.46 | 95 | 1006.0 |
| 20260506004011 | 61 | 294 | 0.0 | 5.0 | 0.03 | 0.45 | 0.45 | 95 | 1006.3 |
| 20260506003444 | 61 | 291 | 1.0 | 2.0 | 0.03 | 0.45 | 0.45 | 94 | 1006.3 |
| 20260506003015 | 60 | 273 | 0.0 | 2.0 | 0.03 | 0.45 | 0.45 | 94 | 1005.7 |
| 20260506002940 | 60 | 291 | 0.0 | 2.0 | 0.03 | 0.45 | 0.45 | 94 | 1006.4 |
| 20260506002435 | 61 | 291 | 0.0 | 1.0 | 0.04 | 0.45 | 0.45 | 94 | 1006.2 |
| 20260506001916 | 61 | 290 | 0.0 | 2.0 | 0.03 | 0.44 | 0.44 | 94 | 1006.2 |
| 20260506001637 | 61 | 291 | 0.0 | 2.0 | 0.03 | 0.44 | 0.44 | 94 | 1006.1 |
| 20260506001609 | 60 | 290 | 0.0 | 1.0 | 0.03 | 0.44 | 0.44 | 94 | 1005.6 |
| 20260506000851 | 61 | 290 | 1.0 | 5.0 | 0.03 | 0.44 | 0.44 | 94 | 1005.9 |
| 20260506000605 | 61 | 290 | 1.0 | 5.0 | 0.02 | 0.43 | 0.43 | 94 | 1006.0 |
| 20260506000008 | 60 | 289 | 1.0 | 5.0 | 0.02 | 0.43 | 0.43 | 94 | 1005.5 |
| 20260505235842 | 61 | 288 | 2.0 | 5.0 | 0.02 | 0.43 | 0.43 | 94 | 1006.0 |
| 20260505235338 | 61 | 289 | 2.0 | 5.0 | 0.02 | 0.43 | 0.43 | 94 | 1006.1 |
| 20260505234838 | 61 | 290 | 2.0 | 6.0 | 0.01 | 0.42 | 0.42 | 94 | 1006.0 |
| 20260505234547 | 60 | 273 | 1.0 | 6.0 | 0.01 | 0.42 | 0.42 | 94 | 1005.6 |
| 20260505234309 | 61 | 273 | 2.0 | 6.0 | 0.01 | 0.42 | 0.42 | 94 | 1006.2 |
| 20260505233808 | 61 | 273 | 2.0 | 6.0 | 0.01 | 0.42 | 0.42 | 94 | 1006.3 |
| 20260505233245 | 61 | 290 | 2.0 | 6.0 | 0.01 | 0.42 | 0.42 | 94 | 1006.3 |
| 20260505233025 | 60 | 288 | 1.0 | 4.0 | 0.01 | 0.42 | 0.42 | 94 | 1005.8 |
| 20260505232732 | 61 | 286 | 2.0 | 7.0 | 0.00 | 0.41 | 0.41 | 94 | 1006.4 |
| 20260505232458 | 61 | 286 | 2.0 | 8.0 | 0.00 | 0.41 | 0.41 | 94 | 1006.4 |
| 20260505231734 | 61 | 287 | 2.0 | 4.0 | 0.00 | 0.41 | 0.41 | 94 | 1006.4 |
| 20260505231555 | 61 | 287 | 1.0 | 4.0 | 0.00 | 0.41 | 0.41 | 94 | 1005.8 |
| 20260505231435 | 61 | 288 | 2.0 | 7.0 | 0.01 | 0.41 | 0.41 | 94 | 1006.3 |
| 20260505230702 | 61 | 288 | 3.0 | 7.0 | 0.01 | 0.41 | 0.41 | 94 | 1006.4 |
| 20260505230200 | 61 | 290 | 4.0 | 12.0 | 0.01 | 0.41 | 0.41 | 94 | 1006.4 |
| 20260505230109 | 61 | 288 | 3.0 | 12.0 | 0.01 | 0.41 | 0.41 | 94 | 1005.9 |
| 20260505225859 | 61 | 288 | 3.0 | 12.0 | 0.01 | 0.41 | 0.41 | 94 | 1006.5 |
| 20260505225339 | 61 | 290 | 4.0 | 9.0 | 0.01 | 0.41 | 0.41 | 94 | 1006.6 |
| 20260505224543 | 61 | 290 | 3.0 | 9.0 | 0.01 | 0.41 | 0.41 | 94 | 1006.7 |
| 20260505224526 | 61 | 290 | 4.0 | 9.0 | 0.01 | 0.41 | 0.41 | 94 | 1006.1 |
| 20260505224015 | 61 | 290 | 2.0 | 8.0 | 0.02 | 0.41 | 0.41 | 94 | 1006.7 |
| 20260505223451 | 61 | 289 | 2.0 | 9.0 | 0.02 | 0.41 | 0.41 | 94 | 1006.8 |
| 20260505223100 | 61 | 290 | 1.0 | 9.0 | 0.03 | 0.41 | 0.41 | 94 | 1006.3 |
| 20260505222924 | 61 | 289 | 3.0 | 9.0 | 0.03 | 0.41 | 0.41 | 94 | 1006.8 |
| 20260505222419 | 61 | 289 | 4.0 | 11.0 | 0.03 | 0.41 | 0.41 | 94 | 1006.8 |
| 20260505221919 | 61 | 288 | 4.0 | 11.0 | 0.04 | 0.41 | 0.41 | 94 | 1006.9 |
| 20260505221545 | 61 | 288 | 4.0 | 11.0 | 0.04 | 0.41 | 0.41 | 94 | 1006.4 |
| 20260505221353 | 61 | 289 | 4.0 | 10.0 | 0.04 | 0.41 | 0.41 | 94 | 1007.0 |
| 20260505220828 | 61 | 290 | 4.0 | 9.0 | 0.03 | 0.40 | 0.40 | 94 | 1007.1 |
| 20260505220259 | 61 | 290 | 3.0 | 9.0 | 0.03 | 0.40 | 0.40 | 94 | 1007.1 |
| 20260505220039 | 61 | 290 | 3.0 | 9.0 | 0.03 | 0.40 | 0.40 | 94 | 1006.6 |
| 20260505215733 | 61 | 292 | 3.0 | 9.0 | 0.03 | 0.40 | 0.40 | 94 | 1007.2 |
| 20260505215210 | 61 | 293 | 3.0 | 9.0 | 0.03 | 0.40 | 0.40 | 94 | 1007.2 |
| 20260505214642 | 61 | 290 | 4.0 | 10.0 | 0.03 | 0.40 | 0.40 | 94 | 1007.2 |
| 20260505214507 | 61 | 292 | 3.0 | 10.0 | 0.03 | 0.40 | 0.40 | 94 | 1006.6 |
| 20260505214115 | 61 | 291 | 4.0 | 10.0 | 0.02 | 0.39 | 0.39 | 94 | 1007.2 |
| 20260505213549 | 61 | 288 | 3.0 | 8.0 | 0.02 | 0.39 | 0.39 | 94 | 1007.2 |
| 20260505213022 | 61 | 288 | 4.0 | 12.0 | 0.02 | 0.38 | 0.38 | 94 | 1007.2 |
| 20260505213008 | 61 | 288 | 1.0 | 12.0 | 0.02 | 0.38 | 0.38 | 94 | 1006.7 |
| 20260505212507 | 61 | 288 | 4.0 | 12.0 | 0.02 | 0.38 | 0.38 | 94 | 1007.2 |
| 20260505211949 | 61 | 286 | 3.0 | 9.0 | 0.01 | 0.37 | 0.38 | 94 | 1007.2 |
| 20260505211532 | 61 | 286 | 4.0 | 9.0 | 0.01 | 0.37 | 0.37 | 94 | 1006.6 |
| 20260505211453 | 61 | 286 | 3.0 | 9.0 | 0.01 | 0.37 | 0.37 | 94 | 1007.3 |
| 20260505210925 | 61 | 288 | 3.0 | 9.0 | 0.01 | 0.37 | 0.37 | 94 | 1007.3 |
| 20260505210356 | 61 | 286 | 3.0 | 9.0 | 0.02 | 0.37 | 0.37 | 94 | 1007.3 |
| 20260505210044 | 61 | 286 | 2.0 | 10.0 | 0.02 | 0.37 | 0.37 | 94 | 1006.7 |
| 20260505205856 | 61 | 287 | 3.0 | 10.0 | 0.03 | 0.37 | 0.37 | 94 | 1007.3 |
| 20260505205329 | 61 | 287 | 4.0 | 9.0 | 0.03 | 0.37 | 0.37 | 94 | 1007.2 |
| 20260505204803 | 61 | 286 | 4.0 | 11.0 | 0.04 | 0.37 | 0.37 | 93 | 1007.2 |
| 20260505204512 | 61 | 286 | 5.0 | 11.0 | 0.04 | 0.37 | 0.37 | 93 | 1006.7 |
| 20260505204235 | 61 | 287 | 2.0 | 8.0 | 0.05 | 0.37 | 0.37 | 93 | 1007.3 |
| 20260505203735 | 62 | 290 | 2.0 | 8.0 | 0.06 | 0.37 | 0.37 | 93 | 1007.3 |
| 20260505203207 | 61 | 273 | 2.0 | 8.0 | 0.11 | 0.36 | 0.36 | 93 | 1007.3 |
| 20260505203100 | 61 | 291 | 1.0 | 8.0 | 0.12 | 0.36 | 0.36 | 93 | 1006.8 |
| 20260505202908 | 61 | 290 | 3.0 | 9.0 | 0.18 | 0.36 | 0.36 | 93 | 1007.3 |
| 20260505202115 | 61 | 290 | 2.0 | 9.0 | 0.20 | 0.36 | 0.36 | 93 | 1007.3 |
| 20260505201550 | 61 | 291 | 2.0 | 4.0 | 0.22 | 0.36 | 0.36 | 93 | 1007.4 |
| 20260505201519 | 61 | 273 | 2.0 | 4.0 | 0.22 | 0.36 | 0.36 | 93 | 1006.8 |
| 20260505201247 | 61 | 290 | 2.0 | 5.0 | 0.22 | 0.36 | 0.36 | 93 | 1007.4 |
| 20260505200454 | 61 | 290 | 2.0 | 6.0 | 0.21 | 0.35 | 0.35 | 92 | 1007.5 |
| 20260505200039 | 61 | 273 | 2.0 | 9.0 | 0.21 | 0.35 | 0.35 | 92 | 1006.8 |
| 20260505195953 | 61 | 291 | 2.0 | 9.0 | 0.20 | 0.34 | 0.35 | 92 | 1007.5 |
| 20260505195448 | 61 | 288 | 2.0 | 9.0 | 0.20 | 0.34 | 0.34 | 91 | 1007.5 |
| 20260505195209 | 61 | 288 | 2.0 | 9.0 | 0.19 | 0.33 | 0.33 | 91 | 1007.7 |
| 20260505194548 | 61 | 288 | 3.0 | 10.0 | 0.19 | 0.33 | 0.33 | 91 | 1007.2 |
| 20260505194421 | 62 | 288 | 4.0 | 16.0 | 0.18 | 0.32 | 0.32 | 90 | 1007.8 |
| 20260505193917 | 62 | 290 | 6.0 | 16.0 | 0.17 | 0.31 | 0.32 | 89 | 1007.9 |
| 20260505193352 | 63 | 290 | 5.0 | 14.0 | 0.13 | 0.27 | 0.27 | 87 | 1008.1 |
| 20260505193106 | 63 | 289 | 4.0 | 14.0 | 0.10 | 0.24 | 0.24 | 85 | 1007.4 |
| 20260505192822 | 64 | 273 | 6.0 | 15.0 | 0.06 | 0.20 | 0.20 | 83 | 1007.9 |
| 20260505192323 | 65 | 287 | 5.0 | 15.0 | 0.03 | 0.17 | 0.17 | 79 | 1007.7 |
| 20260505191755 | 67 | 287 | 4.0 | 13.0 | 0.00 | 0.14 | 0.14 | 74 | 1007.6 |
| 20260505191522 | 67 | 213 | 2.0 | 12.0 | 0.00 | 0.14 | 0.14 | 72 | 1006.8 |
| 20260505191253 | 67 | 95 | 4.0 | 13.0 | 0.00 | 0.14 | 0.14 | 71 | 1007.2 |
| 20260505191011 | 68 | 75 | 4.0 | 10.0 | 0.00 | 0.14 | 0.14 | 71 | 1007.2 |
| 20260505190245 | 68 | 158 | 5.0 | 12.0 | 0.00 | 0.14 | 0.14 | 70 | 1007.4 |
| 20260505190046 | 67 | 172 | 3.0 | 12.0 | 0.00 | 0.14 | 0.14 | 70 | 1006.7 |
| 20260505185744 | 68 | 145 | 6.0 | 12.0 | 0.00 | 0.14 | 0.14 | 70 | 1007.4 |
| 20260505185214 | 68 | 123 | 6.0 | 11.0 | 0.00 | 0.14 | 0.14 | 70 | 1007.4 |
| 20260505184714 | 68 | 121 | 5.0 | 12.0 | 0.00 | 0.14 | 0.14 | 69 | 1007.4 |
| 20260505184533 | 67 | 84 | 5.0 | 12.0 | 0.00 | 0.14 | 0.14 | 70 | 1006.9 |
| 20260505184148 | 68 | 100 | 5.0 | 11.0 | 0.00 | 0.14 | 0.14 | 69 | 1007.6 |
| 20260505184106 | 67 | 82 | 5.0 | 13.0 | 0.00 | 0.14 | 0.14 | 69 | 1007.5 |
| 20260505183117 | 67 | 156 | 6.0 | 13.0 | 0.00 | 0.14 | 0.14 | 69 | 1007.6 |
| 20260505183047 | 67 | 155 | 5.0 | 9.0 | 0.00 | 0.14 | 0.14 | 69 | 1007.0 |
| 20260505182551 | 67 | 114 | 6.0 | 13.0 | 0.00 | 0.14 | 0.14 | 69 | 1007.7 |
| 20260505182245 | 67 | 151 | 6.0 | 16.0 | 0.00 | 0.14 | 0.14 | 69 | 1007.7 |
| 20260505181521 | 67 | 100 | 6.0 | 16.0 | 0.00 | 0.14 | 0.14 | 69 | 1007.3 |
| 20260505181458 | 67 | 123 | 6.0 | 19.0 | 0.00 | 0.14 | 0.14 | 69 | 1007.8 |
| 20260505180956 | 67 | 123 | 6.0 | 19.0 | 0.00 | 0.14 | 0.14 | 69 | 1007.9 |
| 20260505180427 | 67 | 73 | 5.0 | 11.0 | 0.00 | 0.14 | 0.14 | 68 | 1008.0 |
| 20260505180005 | 67 | 109 | 4.0 | 11.0 | 0.00 | 0.14 | 0.14 | 69 | 1007.4 |
| 20260505175927 | 67 | 97 | 5.0 | 11.0 | 0.00 | 0.14 | 0.14 | 69 | 1008.0 |
| 20260505175357 | 67 | 120 | 5.0 | 15.0 | 0.00 | 0.14 | 0.14 | 69 | 1008.0 |
| 20260505174834 | 67 | 132 | 5.0 | 10.0 | 0.00 | 0.14 | 0.14 | 69 | 1008.1 |
| 20260505174541 | 66 | 138 | 3.0 | 10.0 | 0.00 | 0.14 | 0.14 | 68 | 1007.6 |
| 20260505174303 | 67 | 127 | 6.0 | 12.0 | 0.00 | 0.14 | 0.14 | 69 | 1008.1 |
| 20260505173803 | 67 | 134 | 5.0 | 11.0 | 0.00 | 0.14 | 0.14 | 69 | 1008.2 |
| 20260505173511 | 66 | 122 | 4.0 | 12.0 | 0.00 | 0.14 | 0.14 | 69 | 1008.2 |
| 20260505173012 | 66 | 157 | 3.0 | 16.0 | 0.00 | 0.14 | 0.14 | 69 | 1007.7 |
| 20260505172747 | 66 | 115 | 4.0 | 16.0 | 0.00 | 0.14 | 0.14 | 70 | 1008.3 |
| 20260505172248 | 66 | 148 | 5.0 | 16.0 | 0.00 | 0.14 | 0.14 | 68 | 1008.3 |
| 20260505171723 | 66 | 99 | 4.0 | 10.0 | 0.00 | 0.14 | 0.14 | 68 | 1008.3 |
| 20260505171519 | 66 | 128 | 5.0 | 10.0 | 0.00 | 0.14 | 0.14 | 69 | 1007.7 |
| 20260505171225 | 66 | 121 | 4.0 | 11.0 | 0.00 | 0.14 | 0.14 | 69 | 1008.3 |
| 20260505170708 | 66 | 326 | 4.0 | 11.0 | 0.00 | 0.14 | 0.14 | 68 | 1008.4 |
| 20260505170218 | 66 | 292 | 5.0 | 14.0 | 0.00 | 0.14 | 0.14 | 68 | 1008.4 |
| 20260505170033 | 66 | 288 | 4.0 | 14.0 | 0.00 | 0.14 | 0.14 | 68 | 1007.8 |
| 20260505165641 | 66 | 289 | 6.0 | 14.0 | 0.00 | 0.14 | 0.14 | 68 | 1008.5 |
| 20260505165111 | 66 | 292 | 6.0 | 14.0 | 0.00 | 0.14 | 0.14 | 68 | 1008.4 |
| 20260505164545 | 66 | 296 | 5.0 | 14.0 | 0.00 | 0.14 | 0.14 | 69 | 1008.4 |
| 20260505164530 | 66 | 295 | 6.0 | 14.0 | 0.00 | 0.14 | 0.14 | 69 | 1007.8 |
| 20260505164040 | 66 | 312 | 5.0 | 13.0 | 0.00 | 0.14 | 0.14 | 68 | 1008.3 |
| 20260505163539 | 66 | 299 | 5.0 | 11.0 | 0.00 | 0.14 | 0.14 | 69 | 1008.4 |
| 20260505163030 | 66 | 114 | 5.0 | 11.0 | 0.00 | 0.14 | 0.14 | 69 | 1007.8 |
| 20260505163011 | 66 | 111 | 5.0 | 11.0 | 0.00 | 0.14 | 0.14 | 69 | 1008.4 |
| 20260505162512 | 66 | 308 | 5.0 | 12.0 | 0.00 | 0.14 | 0.14 | 70 | 1008.4 |
| 20260505161941 | 66 | 295 | 6.0 | 15.0 | 0.00 | 0.14 | 0.14 | 69 | 1008.4 |
| 20260505161535 | 66 | 285 | 7.0 | 15.0 | 0.00 | 0.14 | 0.14 | 70 | 1007.8 |
| 20260505161439 | 66 | 286 | 6.0 | 15.0 | 0.00 | 0.14 | 0.14 | 70 | 1008.3 |
| 20260505160915 | 66 | 286 | 6.0 | 11.0 | 0.00 | 0.14 | 0.14 | 70 | 1008.4 |
| 20260505160347 | 66 | 286 | 5.0 | 13.0 | 0.00 | 0.14 | 0.14 | 70 | 1008.3 |
| 20260505153242 | 66 | 120 | 5.0 | 12.0 | 0.00 | 0.14 | 0.14 | 73 | 1008.2 |
| 20260505153101 | 66 | 136 | 5.0 | 12.0 | 0.00 | 0.14 | 0.14 | 71 | 1007.6 |
| 20260505152730 | 66 | 134 | 5.0 | 12.0 | 0.00 | 0.14 | 0.14 | 73 | 1008.2 |
| 20260505152231 | 66 | 111 | 6.0 | 12.0 | 0.00 | 0.14 | 0.14 | 73 | 1008.2 |
| 20260505151705 | 66 | 128 | 5.0 | 12.0 | 0.00 | 0.14 | 0.14 | 75 | 1008.1 |
| 20260505151504 | 65 | 103 | 4.0 | 11.0 | 0.00 | 0.14 | 0.14 | 75 | 1007.6 |
| 20260505151204 | 65 | 91 | 6.0 | 13.0 | 0.00 | 0.14 | 0.14 | 76 | 1008.2 |
| 20260505150708 | 65 | 143 | 5.0 | 13.0 | 0.00 | 0.14 | 0.14 | 76 | 1008.2 |
| 20260505150148 | 65 | 75 | 5.0 | 12.0 | 0.00 | 0.14 | 0.14 | 79 | 1008.3 |
| 20260505140452 | 61 | 156 | 3.0 | 10.0 | 0.00 | 0.14 | 0.14 | 91 | 1007.9 |
| 20260505124817 | 58 | 273 | 4.0 | 12.0 | 0.00 | 0.14 | 0.14 | 94 | 1007.5 |
| 20260505124608 | 58 | 290 | 4.0 | 12.0 | 0.00 | 0.14 | 0.14 | 94 | 1006.8 |
| 20260505124314 | 59 | 273 | 3.0 | 6.0 | 0.00 | 0.14 | 0.14 | 94 | 1007.5 |
| 20260505123747 | 58 | 273 | 3.0 | 9.0 | 0.01 | 0.14 | 0.14 | 94 | 1007.7 |
| 20260505123225 | 58 | 273 | 3.0 | 9.0 | 0.01 | 0.14 | 0.14 | 94 | 1007.9 |
| 20260505123045 | 58 | 273 | 2.0 | 6.0 | 0.01 | 0.14 | 0.14 | 94 | 1007.5 |
| 20260505122705 | 58 | 288 | 3.0 | 7.0 | 0.02 | 0.14 | 0.14 | 94 | 1008.1 |
| 20260505122207 | 58 | 286 | 3.0 | 8.0 | 0.02 | 0.14 | 0.14 | 94 | 1007.9 |
| 20260505121653 | 58 | 287 | 3.0 | 9.0 | 0.02 | 0.14 | 0.14 | 94 | 1008.0 |
| 20260505121527 | 58 | 288 | 1.0 | 9.0 | 0.02 | 0.14 | 0.14 | 94 | 1007.5 |
| 20260505121417 | 58 | 273 | 3.0 | 9.0 | 0.02 | 0.14 | 0.14 | 94 | 1008.2 |
| 20260505120657 | 58 | 273 | 2.0 | 9.0 | 0.02 | 0.14 | 0.14 | 94 | 1008.2 |
| 20260505120142 | 58 | 273 | 3.0 | 9.0 | 0.02 | 0.14 | 0.14 | 94 | 1008.2 |
| 20260505120125 | 58 | 289 | 3.0 | 9.0 | 0.02 | 0.14 | 0.14 | 94 | 1008.2 |
| 20260505120041 | 57 | 273 | 2.0 | 9.0 | 0.02 | 0.14 | 0.14 | 94 | 1007.7 |
| 20260505115137 | 58 | 291 | 3.0 | 9.0 | 0.02 | 0.14 | 0.14 | 94 | 1008.2 |
| 20260505114638 | 58 | 288 | 2.0 | 9.0 | 0.02 | 0.14 | 0.14 | 94 | 1008.1 |
| 20260505114507 | 57 | 288 | 3.0 | 9.0 | 0.02 | 0.14 | 0.14 | 94 | 1007.6 |
| 20260505114114 | 58 | 287 | 2.0 | 6.0 | 0.01 | 0.13 | 0.13 | 94 | 1007.9 |
| 20260505113556 | 58 | 288 | 2.0 | 4.0 | 0.01 | 0.13 | 0.13 | 94 | 1007.8 |
| 20260505113054 | 57 | 287 | 2.0 | 8.0 | 0.01 | 0.13 | 0.13 | 94 | 1007.7 |
| 20260505113019 | 57 | 287 | 1.0 | 5.0 | 0.01 | 0.13 | 0.13 | 94 | 1007.1 |
| 20260505112552 | 57 | 288 | 2.0 | 8.0 | 0.01 | 0.12 | 0.12 | 93 | 1007.5 |
| 20260505112317 | 57 | 289 | 3.0 | 8.0 | 0.02 | 0.12 | 0.12 | 93 | 1007.5 |
| 20260505111752 | 57 | 289 | 3.0 | 8.0 | 0.02 | 0.12 | 0.12 | 93 | 1007.4 |
| 20260505111509 | 57 | 289 | 3.0 | 8.0 | 0.02 | 0.12 | 0.12 | 93 | 1007.0 |
| 20260505111021 | 57 | 287 | 2.0 | 7.0 | 0.05 | 0.12 | 0.12 | 93 | 1007.1 |
| 20260505110526 | 57 | 288 | 2.0 | 5.0 | 0.06 | 0.12 | 0.12 | 93 | 1006.8 |
| 20260505101915 | 57 | 273 | 1.0 | 5.0 | 0.10 | 0.10 | 0.10 | 91 | 1008.1 |
| 20260505101537 | 57 | 273 | 1.0 | 5.0 | 0.10 | 0.10 | 0.10 | 91 | 1007.6 |
| 20260505101412 | 58 | 273 | 1.0 | 5.0 | 0.10 | 0.10 | 0.10 | 90 | 1008.2 |
| 20260505100909 | 58 | 273 | 2.0 | 6.0 | 0.07 | 0.07 | 0.07 | 90 | 1008.4 |
| 20260505100630 | 58 | 273 | 3.0 | 12.0 | 0.06 | 0.06 | 0.06 | 90 | 1008.5 |
| 20260505100023 | 58 | 273 | 2.0 | 12.0 | 0.05 | 0.05 | 0.05 | 89 | 1008.1 |
| 20260505095841 | 58 | 273 | 4.0 | 12.0 | 0.04 | 0.04 | 0.04 | 89 | 1008.6 |
| 20260505095337 | 58 | 273 | 4.0 | 12.0 | 0.03 | 0.03 | 0.03 | 88 | 1008.4 |
| 20260505094811 | 59 | 273 | 2.0 | 12.0 | 0.02 | 0.02 | 0.02 | 87 | 1008.4 |
| 20260505094636 | 59 | 273 | 3.0 | 12.0 | 0.02 | 0.02 | 0.02 | 87 | 1007.8 |
| 20260505094310 | 59 | 273 | 1.0 | 8.0 | 0.02 | 0.02 | 0.02 | 87 | 1008.3 |
| 20260505093741 | 60 | 273 | 2.0 | 6.0 | 0.01 | 0.01 | 0.01 | 86 | 1008.3 |
| 20260505093216 | 60 | 273 | 2.0 | 8.0 | 0.01 | 0.01 | 0.01 | 84 | 1008.2 |
| 20260505093100 | 60 | 273 | 1.0 | 8.0 | 0.01 | 0.01 | 0.01 | 83 | 1007.7 |
| 20260505092649 | 61 | 273 | 2.0 | 8.0 | 0.01 | 0.01 | 0.01 | 82 | 1008.1 |
| 20260505092143 | 62 | 273 | 2.0 | 4.0 | 0.01 | 0.01 | 0.01 | 78 | 1007.8 |
| 20260505091644 | 63 | 289 | 1.0 | 3.0 | 0.00 | 0.00 | 0.00 | 75 | 1007.6 |
| 20260505091532 | 63 | 289 | 1.0 | 3.0 | 0.00 | 0.00 | 0.00 | 74 | 1007.2 |
| 20260505091116 | 64 | 287 | 3.0 | 10.0 | 0.00 | 0.00 | 0.00 | 70 | 1007.3 |
| 20260505090557 | 64 | 288 | 3.0 | 10.0 | 0.00 | 0.00 | 0.00 | 68 | 1007.3 |
| 20260505090309 | 65 | 287 | 2.0 | 4.0 | 0.00 | 0.00 | 0.00 | 63 | 1007.5 |
| 20260505090034 | 64 | 287 | 2.0 | 4.0 | 0.00 | 0.00 | 0.00 | 63 | 1007.1 |
| 20260505085804 | 65 | 287 | 1.0 | 3.0 | 0.00 | 0.00 | 0.00 | 63 | 1007.2 |
| 20260505085041 | 65 | 287 | 1.0 | 3.0 | 0.00 | 0.00 | 0.00 | 62 | 1006.9 |
| 20260505084618 | 65 | 287 | 1.0 | 4.0 | 0.00 | 0.00 | 0.00 | 62 | 1006.5 |
| 20260505084537 | 65 | 287 | 1.0 | 4.0 | 0.00 | 0.00 | 0.00 | 62 | 1006.9 |
| 20260505084011 | 65 | 286 | 1.0 | 4.0 | 0.00 | 0.00 | 0.00 | 61 | 1006.9 |
| 20260505083927 | 65 | 286 | 2.0 | 4.0 | 0.00 | 0.00 | 0.00 | 61 | 1006.8 |
| 20260505083112 | 65 | 287 | 1.0 | 4.0 | 0.00 | 0.00 | 0.00 | 61 | 1006.3 |
| 20260505082920 | 65 | 287 | 2.0 | 3.0 | 0.00 | 0.00 | 0.00 | 61 | 1006.7 |
| 20260505082353 | 66 | 286 | 2.0 | 5.0 | 0.00 | 0.00 | 0.00 | 60 | 1006.5 |
| 20260505081852 | 66 | 288 | 2.0 | 5.0 | 0.00 | 0.00 | 0.00 | 60 | 1006.3 |
| 20260505081602 | 65 | 288 | 2.0 | 5.0 | 0.00 | 0.00 | 0.00 | 59 | 1005.8 |
| 20260505081322 | 66 | 287 | 2.0 | 7.0 | 0.00 | 0.00 | 0.00 | 59 | 1006.2 |
| 20260505080820 | 66 | 288 | 3.0 | 7.0 | 0.00 | 0.00 | 0.00 | 59 | 1006.2 |
| 20260505080542 | 66 | 288 | 3.0 | 10.0 | 0.00 | 0.00 | 0.00 | 59 | 1006.2 |
| 20260505080011 | 66 | 288 | 2.0 | 10.0 | 0.00 | 0.00 | 0.00 | 58 | 1005.7 |
| 20260505075816 | 67 | 288 | 5.0 | 13.0 | 0.00 | 0.00 | 0.00 | 58 | 1006.2 |
| 20260505075245 | 67 | 287 | 5.0 | 13.0 | 0.00 | 0.00 | 0.00 | 58 | 1006.3 |
| 20260505074743 | 67 | 286 | 4.0 | 10.0 | 0.00 | 0.00 | 0.00 | 58 | 1006.3 |
| 20260505074628 | 66 | 288 | 4.0 | 10.0 | 0.00 | 0.00 | 0.00 | 58 | 1005.9 |
| 20260505074220 | 67 | 286 | 4.0 | 9.0 | 0.00 | 0.00 | 0.00 | 58 | 1006.3 |
| 20260505073718 | 67 | 288 | 3.0 | 9.0 | 0.00 | 0.00 | 0.00 | 58 | 1006.3 |
| 20260505073217 | 67 | 287 | 3.0 | 8.0 | 0.00 | 0.00 | 0.00 | 57 | 1006.2 |
| 20260505073038 | 67 | 286 | 2.0 | 5.0 | 0.00 | 0.00 | 0.00 | 57 | 1005.7 |
| 20260505072926 | 67 | 286 | 3.0 | 10.0 | 0.00 | 0.00 | 0.00 | 57 | 1006.1 |
| 20260505072207 | 67 | 287 | 4.0 | 13.0 | 0.00 | 0.00 | 0.00 | 57 | 1006.0 |
| 20260505071640 | 67 | 287 | 5.0 | 13.0 | 0.00 | 0.00 | 0.00 | 56 | 1005.9 |
| 20260505071549 | 67 | 287 | 3.0 | 13.0 | 0.00 | 0.00 | 0.00 | 56 | 1005.4 |
| 20260505071400 | 67 | 287 | 5.0 | 13.0 | 0.00 | 0.00 | 0.00 | 57 | 1005.9 |
| 20260505070608 | 67 | 286 | 4.0 | 13.0 | 0.00 | 0.00 | 0.00 | 57 | 1006.0 |
| 20260505070304 | 67 | 286 | 5.0 | 13.0 | 0.00 | 0.00 | 0.00 | 57 | 1006.0 |
| 20260505070010 | 66 | 286 | 4.0 | 13.0 | 0.00 | 0.00 | 0.00 | 58 | 1005.6 |
| 20260505065511 | 67 | 287 | 4.0 | 13.0 | 0.00 | 0.00 | 0.00 | 58 | 1006.0 |
| 20260505065241 | 66 | 288 | 3.0 | 10.0 | 0.00 | 0.00 | 0.00 | 59 | 1005.8 |
| 20260505064725 | 66 | 286 | 4.0 | 10.0 | 0.00 | 0.00 | 0.00 | 59 | 1005.8 |
| 20260505064523 | 66 | 286 | 2.0 | 10.0 | 0.00 | 0.00 | 0.00 | 59 | 1005.4 |
| 20260505064006 | 67 | 286 | 4.0 | 10.0 | 0.00 | 0.00 | 0.00 | 59 | 1005.7 |
| 20260505063501 | 67 | 287 | 4.0 | 9.0 | 0.00 | 0.00 | 0.00 | 59 | 1005.7 |
| 20260505063016 | 66 | 287 | 3.0 | 9.0 | 0.00 | 0.00 | 0.00 | 58 | 1005.2 |
| 20260505062958 | 67 | 288 | 4.0 | 9.0 | 0.00 | 0.00 | 0.00 | 58 | 1005.7 |
| 20260505062458 | 67 | 286 | 3.0 | 10.0 | 0.00 | 0.00 | 0.00 | 58 | 1005.7 |
| 20260505061943 | 67 | 286 | 4.0 | 10.0 | 0.00 | 0.00 | 0.00 | 58 | 1005.7 |
| 20260505061708 | 67 | 286 | 4.0 | 13.0 | 0.00 | 0.00 | 0.00 | 57 | 1005.7 |
| 20260505061529 | 67 | 286 | 3.0 | 10.0 | 0.00 | 0.00 | 0.00 | 58 | 1005.3 |
| 20260505061204 | 67 | 288 | 5.0 | 13.0 | 0.00 | 0.00 | 0.00 | 57 | 1005.7 |
| 20260505060441 | 68 | 286 | 5.0 | 11.0 | 0.00 | 0.00 | 0.00 | 56 | 1005.6 |
| 20260505060047 | 68 | 297 | 4.0 | 10.0 | 0.00 | 0.00 | 0.00 | 55 | 1005.1 |
| 20260505055915 | 68 | 286 | 5.0 | 10.0 | 0.00 | 0.00 | 0.00 | 55 | 1005.5 |
| 20260505055610 | 69 | 287 | 5.0 | 10.0 | 0.00 | 0.00 | 0.00 | 55 | 1005.4 |
| 20260505055103 | 69 | 164 | 6.0 | 12.0 | 0.00 | 0.00 | 0.00 | 55 | 1005.2 |
| 20260505054555 | 69 | 124 | 6.0 | 14.0 | 0.00 | 0.00 | 0.00 | 55 | 1005.1 |
| 20260505054506 | 68 | 85 | 3.0 | 12.0 | 0.00 | 0.00 | 0.00 | 55 | 1004.7 |
| 20260505053836 | 69 | 134 | 6.0 | 17.0 | 0.00 | 0.00 | 0.00 | 54 | 1005.2 |
| 20260505053310 | 69 | 293 | 6.0 | 17.0 | 0.00 | 0.00 | 0.00 | 54 | 1005.0 |
| 20260505053025 | 69 | 288 | 5.0 | 17.0 | 0.00 | 0.00 | 0.00 | 54 | 1004.7 |
| 20260505052754 | 69 | 287 | 6.0 | 19.0 | 0.00 | 0.00 | 0.00 | 54 | 1005.0 |
| 20260505052253 | 69 | 118 | 7.0 | 19.0 | 0.00 | 0.00 | 0.00 | 53 | 1004.9 |
| 20260505051753 | 69 | 167 | 7.0 | 19.0 | 0.00 | 0.00 | 0.00 | 53 | 1004.9 |
| 20260505051534 | 69 | 113 | 5.0 | 19.0 | 0.00 | 0.00 | 0.00 | 53 | 1004.5 |
| 20260505051254 | 69 | 130 | 7.0 | 19.0 | 0.00 | 0.00 | 0.00 | 53 | 1004.9 |
| 20260505050726 | 69 | 122 | 8.0 | 19.0 | 0.00 | 0.00 | 0.00 | 53 | 1004.9 |
| 20260505050224 | 69 | 297 | 7.0 | 22.0 | 0.00 | 0.00 | 0.00 | 53 | 1004.7 |
| 20260505041605 | 68 | 286 | 4.0 | 10.0 | 0.00 | 0.00 | 0.00 | 57 | 1005.2 |
| 20260505041524 | 69 | 288 | 5.0 | 10.0 | 0.00 | 0.00 | 0.00 | 56 | 1005.6 |
| 20260505040957 | 69 | 286 | 5.0 | 11.0 | 0.00 | 0.00 | 0.00 | 57 | 1005.6 |
| 20260505040429 | 69 | 287 | 5.0 | 11.0 | 0.00 | 0.00 | 0.00 | 57 | 1005.7 |
| 20260505040043 | 68 | 286 | 5.0 | 11.0 | 0.00 | 0.00 | 0.00 | 57 | 1005.4 |
| 20260505035929 | 69 | 286 | 4.0 | 11.0 | 0.00 | 0.00 | 0.00 | 57 | 1005.7 |
| 20260505035429 | 69 | 287 | 4.0 | 10.0 | 0.00 | 0.00 | 0.00 | 58 | 1005.8 |
| 20260505034927 | 69 | 285 | 4.0 | 11.0 | 0.00 | 0.00 | 0.00 | 58 | 1005.8 |
| 20260505034654 | 68 | 286 | 4.0 | 12.0 | 0.00 | 0.00 | 0.00 | 58 | 1005.4 |
| 20260505034641 | 69 | 286 | 5.0 | 12.0 | 0.00 | 0.00 | 0.00 | 58 | 1005.8 |
| 20260505033919 | 69 | 285 | 4.0 | 12.0 | 0.00 | 0.00 | 0.00 | 58 | 1005.7 |
| 20260505033417 | 69 | 286 | 4.0 | 10.0 | 0.00 | 0.00 | 0.00 | 58 | 1005.7 |
| 20260505033106 | 68 | 288 | 3.0 | 9.0 | 0.00 | 0.00 | 0.00 | 58 | 1005.5 |
| 20260505032922 | 69 | 286 | 4.0 | 9.0 | 0.00 | 0.00 | 0.00 | 58 | 1005.8 |
| 20260505032357 | 69 | 286 | 4.0 | 15.0 | 0.00 | 0.00 | 0.00 | 58 | 1005.8 |
| 20260505031836 | 69 | 285 | 4.0 | 11.0 | 0.00 | 0.00 | 0.00 | 58 | 1005.7 |
| 20260505031525 | 69 | 286 | 4.0 | 11.0 | 0.00 | 0.00 | 0.00 | 58 | 1005.4 |
| 20260505031336 | 69 | 287 | 3.0 | 11.0 | 0.00 | 0.00 | 0.00 | 58 | 1005.7 |
| 20260505030821 | 69 | 287 | 3.0 | 9.0 | 0.00 | 0.00 | 0.00 | 58 | 1005.7 |
| 20260505030256 | 69 | 286 | 4.0 | 10.0 | 0.00 | 0.00 | 0.00 | 58 | 1005.7 |
| 20260505030059 | 69 | 286 | 3.0 | 10.0 | 0.00 | 0.00 | 0.00 | 58 | 1005.4 |
| 20260505025759 | 69 | 288 | 4.0 | 9.0 | 0.00 | 0.00 | 0.00 | 58 | 1005.6 |
| 20260505025248 | 69 | 286 | 4.0 | 10.0 | 0.00 | 0.00 | 0.00 | 57 | 1005.5 |
| 20260505024746 | 69 | 288 | 4.0 | 12.0 | 0.00 | 0.00 | 0.00 | 57 | 1005.5 |
| 20260505024510 | 69 | 288 | 3.0 | 12.0 | 0.00 | 0.00 | 0.00 | 57 | 1005.1 |
| 20260505024245 | 70 | 286 | 4.0 | 13.0 | 0.00 | 0.00 | 0.00 | 57 | 1005.4 |
| 20260505023744 | 70 | 290 | 4.0 | 13.0 | 0.00 | 0.00 | 0.00 | 57 | 1005.3 |
| 20260505023244 | 70 | 286 | 4.0 | 9.0 | 0.00 | 0.00 | 0.00 | 56 | 1005.2 |
| 20260505023041 | 69 | 287 | 3.0 | 9.0 | 0.00 | 0.00 | 0.00 | 56 | 1004.9 |
| 20260505022740 | 70 | 74 | 4.0 | 11.0 | 0.00 | 0.00 | 0.00 | 56 | 1005.2 |
| 20260505022241 | 70 | 115 | 4.0 | 11.0 | 0.00 | 0.00 | 0.00 | 56 | 1005.1 |
| 20260505021942 | 70 | 70 | 4.0 | 10.0 | 0.00 | 0.00 | 0.00 | 56 | 1005.0 |
| 20260505021637 | 70 | 89 | 3.0 | 10.0 | 0.00 | 0.00 | 0.00 | 56 | 1004.7 |
| 20260505021228 | 70 | 116 | 4.0 | 10.0 | 0.00 | 0.00 | 0.00 | 56 | 1005.0 |
| 20260505020704 | 70 | 103 | 4.0 | 11.0 | 0.00 | 0.00 | 0.00 | 56 | 1004.9 |
| 20260505020142 | 70 | 63 | 4.0 | 11.0 | 0.00 | 0.00 | 0.00 | 55 | 1004.7 |
| 20260505020005 | 70 | 53 | 3.0 | 11.0 | 0.00 | 0.00 | 0.00 | 55 | 1004.4 |
| 20260505015620 | 71 | 88 | 4.0 | 9.0 | 0.00 | 0.00 | 0.00 | 55 | 1004.7 |
| 20260505015100 | 71 | 78 | 3.0 | 9.0 | 0.00 | 0.00 | 0.00 | 55 | 1004.6 |
| 20260505014544 | 71 | 107 | 4.0 | 10.0 | 0.00 | 0.00 | 0.00 | 54 | 1004.6 |
| 20260505014522 | 70 | 96 | 3.0 | 9.0 | 0.00 | 0.00 | 0.00 | 54 | 1004.4 |
| 20260505014031 | 71 | 84 | 3.0 | 10.0 | 0.00 | 0.00 | 0.00 | 54 | 1004.6 |
| 20260505013751 | 71 | 59 | 4.0 | 8.0 | 0.00 | 0.00 | 0.00 | 54 | 1004.6 |
| 20260505013230 | 71 | 116 | 4.0 | 9.0 | 0.00 | 0.00 | 0.00 | 53 | 1004.5 |
| 20260505013042 | 71 | 109 | 3.0 | 9.0 | 0.00 | 0.00 | 0.00 | 53 | 1004.2 |
| 20260505012438 | 71 | 122 | 4.0 | 11.0 | 0.00 | 0.00 | 0.00 | 53 | 1004.5 |